Time,TemperatureF,DewpointF,PressureIn,WindDirection,WindDirectionDegrees,WindSpeedMPH,WindSpeedGustMPH,Humidity,HourlyPrecipIn,Conditions,Clouds,dailyrainin,SoftwareType,DateUTC
2013-03-07 00:00:00,37.0,27.1,30.02,NE,47,8.0,18.0,67,0.00,RA,SKC,0.00,WeatherDisplay:10.37,2013-03-07 05:00:00,
2013-03-07 00:05:00,37.0,27.1,30.02,NE,47,8.0,18.0,67,0.00,RA,SKC,0.00,WeatherDisplay:10.37,2013-03-07 05:05:00,
2013-03-07 00:10:00,37.0,27.1,30.01,NE,48,8.0,17.0,67,0.00,CLR,SKC,0.00,WeatherDisplay:10.37,2013-03-07 05:10:00,
2013-03-07 00:15:00,37.0,27.1,30.01,NE,45,9.0,18.0,67,0.00,CLR,SKC,0.00,WeatherDisplay:10.37,2013-03-07 05:15:00,
2013-03-07 00:20:00,36.0,26.1,30.01,NE,46,6.0,20.0,67,0.00,CLR,SKC,0.00,WeatherDisplay:10.37,2013-03-07 05:20:00,
2013-03-07 00:30:00,36.0,25.7,30.01,NE,46,6.0,19.0,66,0.00,CLR,SKC,0.00,WeatherDisplay:10.37,2013-03-07 05:30:00,
2013-03-07 00:40:00,36.0,25.4,30.00,NE,43,9.0,22.0,65,0.00,CLR,SKC,0.00,WeatherDisplay:10.37,2013-03-07 05:40:00,
2013-03-07 00:50:00,36.0,25.4,29.99,NE,41,10.0,21.0,65,0.00,CLR,SKC,0.00,WeatherDisplay:10.37,2013-03-07 05:50:00,
2013-03-07 01:00:00,36.0,25.4,29.99,NE,43,8.0,17.0,65,0.00,CLR,SKC,0.00,WeatherDisplay:10.37,2013-03-07 06:00:00,
2013-03-07 01:05:00,36.0,25.4,29.99,NE,48,8.0,20.0,65,0.00,CLR,SKC,0.00,WeatherDisplay:10.37,2013-03-07 06:05:00,
2013-03-07 01:10:00,36.0,25.4,29.98,NE,50,12.0,28.0,65,0.00,CLR,SKC,0.00,WeatherDisplay:10.37,2013-03-07 06:10:00,
2013-03-07 01:20:00,36.0,25.0,29.98,NE,43,6.0,18.0,64,0.00,CLR,SKC,0.00,WeatherDisplay:10.37,2013-03-07 06:20:00,
2013-03-07 01:30:00,36.0,24.6,29.98,NE,40,7.0,23.0,63,0.00,CLR,SKC,0.00,WeatherDisplay:10.37,2013-03-07 06:30:00,
2013-03-07 01:40:00,35.0,23.3,29.98,NE,40,9.0,21.0,62,0.00,CLR,SKC,0.00,WeatherDisplay:10.37,2013-03-07 06:40:00,
2013-03-07 01:50:00,35.0,22.9,29.97,NNE,33,6.0,28.0,61,0.00,RA,SKC,0.01,WeatherDisplay:10.37,2013-03-07 06:50:00,
2013-03-07 01:55:00,35.0,22.9,29.97,NNE,32,8.0,20.0,61,0.00,CLR,SKC,0.01,WeatherDisplay:10.37,2013-03-07 06:55:00,
2013-03-07 02:00:00,35.0,22.5,29.96,NE,37,6.0,20.0,60,0.00,RA,SKC,0.02,WeatherDisplay:10.37,2013-03-07 07:00:00,
2013-03-07 02:05:00,35.0,22.5,29.96,NE,39,9.0,18.0,60,0.00,RA,SKC,0.02,WeatherDisplay:10.37,2013-03-07 07:05:00,
2013-03-07 02:10:00,35.0,22.5,29.96,NE,40,8.0,20.0,60,0.00,CLR,SKC,0.02,WeatherDisplay:10.37,2013-03-07 07:10:00,
2013-03-07 02:20:00,36.0,23.4,29.96,NE,38,6.0,25.0,60,0.00,CLR,SKC,0.02,WeatherDisplay:10.37,2013-03-07 07:20:00,
2013-03-07 02:30:00,35.4,22.9,29.95,NE,37,8.0,22.0,60,0.00,RA,SKC,0.03,WeatherDisplay:10.37,2013-03-07 07:30:00,
2013-03-07 02:40:00,35.0,22.1,29.94,NE,40,8.0,20.0,59,0.00,CLR,SKC,0.03,WeatherDisplay:10.37,2013-03-07 07:40:00,
2013-03-07 02:50:00,35.6,22.7,29.93,NE,39,6.0,20.0,59,0.00,CLR,SKC,0.03,WeatherDisplay:10.37,2013-03-07 07:50:00,
2013-03-07 02:55:00,35.0,22.1,29.93,NE,43,6.0,16.0,59,0.00,RA,SKC,0.04,WeatherDisplay:10.37,2013-03-07 07:55:00,
2013-03-07 03:00:00,35.0,22.1,29.94,NE,45,9.0,23.0,59,0.00,RA,SKC,0.05,WeatherDisplay:10.37,2013-03-07 08:00:00,
2013-03-07 03:05:00,35.0,22.1,29.94,NE,40,10.0,25.0,59,0.00,RA,SKC,0.05,WeatherDisplay:10.37,2013-03-07 08:05:00,
2013-03-07 03:10:00,35.0,22.1,29.95,NE,39,9.0,24.0,59,0.00,RA,SKC,0.06,WeatherDisplay:10.37,2013-03-07 08:10:00,
2013-03-07 03:20:00,35.0,22.1,29.94,NE,36,7.0,20.0,59,0.00,RA,SKC,0.08,WeatherDisplay:10.37,2013-03-07 08:20:00,
2013-03-07 03:25:00,35.0,22.1,29.94,NNE,33,8.0,20.0,59,0.00,RA,SKC,0.09,WeatherDisplay:10.37,2013-03-07 08:25:00,
2013-03-07 03:30:00,35.0,22.5,29.94,NE,35,7.0,20.0,60,0.00,RA,SKC,0.09,WeatherDisplay:10.37,2013-03-07 08:30:00,
2013-03-07 03:40:00,35.0,22.5,29.94,NE,43,6.0,16.0,60,0.00,RA,SKC,0.10,WeatherDisplay:10.37,2013-03-07 08:40:00,
2013-03-07 03:50:00,35.0,22.5,29.95,NE,42,9.0,21.0,60,0.01,RA,SKC,0.12,WeatherDisplay:10.37,2013-03-07 08:50:00,
2013-03-07 04:00:00,35.0,22.5,29.95,NE,41,9.0,21.0,60,0.00,RA,SKC,0.13,WeatherDisplay:10.37,2013-03-07 09:00:00,
2013-03-07 04:05:00,35.0,22.5,29.95,NE,34,5.0,23.0,60,0.00,RA,SKC,0.14,WeatherDisplay:10.37,2013-03-07 09:05:00,
2013-03-07 04:10:00,35.0,22.5,29.95,NE,40,8.0,20.0,60,0.01,RA,SKC,0.15,WeatherDisplay:10.37,2013-03-07 09:10:00,
2013-03-07 04:15:00,35.0,22.5,29.95,NE,41,8.0,22.0,60,0.00,RA,SKC,0.15,WeatherDisplay:10.37,2013-03-07 09:15:00,
2013-03-07 04:20:00,35.0,22.5,29.94,NE,45,6.0,20.0,60,0.00,RA,SKC,0.16,WeatherDisplay:10.37,2013-03-07 09:20:00,
2013-03-07 04:30:00,35.0,22.5,29.94,NE,44,7.0,16.0,60,0.00,RA,SKC,0.17,WeatherDisplay:10.37,2013-03-07 09:30:00,
2013-03-07 04:40:00,35.0,22.5,29.94,NE,39,6.0,18.0,60,0.00,RA,SKC,0.18,WeatherDisplay:10.37,2013-03-07 09:40:00,
2013-03-07 04:50:00,35.0,22.5,29.95,NE,43,8.0,18.0,60,0.01,RA,SKC,0.20,WeatherDisplay:10.37,2013-03-07 09:50:00,
2013-03-07 04:55:00,35.0,22.5,29.95,NE,36,8.0,23.0,60,0.00,RA,SKC,0.20,WeatherDisplay:10.37,2013-03-07 09:55:00,
2013-03-07 05:05:00,35.0,22.5,29.95,NNE,32,6.0,17.0,60,0.00,RA,SKC,0.22,WeatherDisplay:10.37,2013-03-07 10:05:00,
2013-03-07 05:10:00,35.0,22.5,29.95,NE,36,9.0,21.0,60,0.00,RA,SKC,0.22,WeatherDisplay:10.37,2013-03-07 10:10:00,
2013-03-07 05:20:00,35.0,22.5,29.95,NE,40,6.0,17.0,60,0.00,RA,SKC,0.23,WeatherDisplay:10.37,2013-03-07 10:20:00,
2013-03-07 05:30:00,35.0,22.5,29.95,NE,40,8.0,18.0,60,0.01,RA,SKC,0.25,WeatherDisplay:10.37,2013-03-07 10:30:00,
2013-03-07 05:40:00,35.0,22.5,29.95,NNE,33,8.0,23.0,60,0.00,RA,SKC,0.26,WeatherDisplay:10.37,2013-03-07 10:40:00,
2013-03-07 05:50:00,35.0,22.5,29.95,NE,35,8.0,20.0,60,0.00,RA,SKC,0.27,WeatherDisplay:10.37,2013-03-07 10:50:00,
2013-03-07 06:00:00,35.0,22.9,29.94,NE,35,8.0,20.0,61,0.00,RA,SKC,0.28,WeatherDisplay:10.37,2013-03-07 11:00:00,
2013-03-07 06:05:00,36.0,23.8,29.94,NE,41,8.0,22.0,61,0.00,RA,SKC,0.29,WeatherDisplay:10.37,2013-03-07 11:05:00,
2013-03-07 06:10:00,36.0,23.8,29.94,NNE,33,7.0,16.0,61,0.01,RA,SKC,0.30,WeatherDisplay:10.37,2013-03-07 11:10:00,
2013-03-07 06:20:00,36.0,23.4,29.96,NE,44,7.0,20.0,60,0.00,,SKC,0.30,WeatherDisplay:10.37,2013-03-07 11:20:00,
2013-03-07 06:30:00,36.0,23.4,29.95,NE,35,8.0,20.0,60,0.00,RA,SKC,0.31,WeatherDisplay:10.37,2013-03-07 11:30:00,
2013-03-07 06:40:00,36.0,23.4,29.95,NE,38,7.0,15.0,60,0.00,RA,SKC,0.32,WeatherDisplay:10.37,2013-03-07 11:40:00,
2013-03-07 06:45:00,36.0,23.4,29.95,NE,38,8.0,17.0,60,0.01,RA,SKC,0.33,WeatherDisplay:10.37,2013-03-07 11:45:00,
2013-03-07 06:50:00,36.0,23.4,29.96,NE,38,7.0,27.0,60,0.00,RA,SKC,0.33,WeatherDisplay:10.37,2013-03-07 11:50:00,
2013-03-07 06:55:00,36.0,23.4,29.96,NE,36,7.0,17.0,60,0.00,,SKC,0.33,WeatherDisplay:10.37,2013-03-07 11:55:00,
2013-03-07 07:05:00,36.0,23.4,29.96,NE,41,6.0,20.0,60,0.00,RA,SKC,0.34,WeatherDisplay:10.37,2013-03-07 12:05:00,
2013-03-07 07:10:00,36.0,23.4,29.96,NE,39,10.0,22.0,60,0.00,CLR,SKC,0.34,WeatherDisplay:10.37,2013-03-07 12:10:00,
2013-03-07 07:20:00,36.0,23.4,29.96,NE,36,8.0,20.0,60,0.00,CLR,SKC,0.34,WeatherDisplay:10.37,2013-03-07 12:20:00,
2013-03-07 07:25:00,36.0,23.4,29.96,NE,41,7.0,20.0,60,0.00,CLR,SKC,0.34,WeatherDisplay:10.37,2013-03-07 12:25:00,
2013-03-07 07:35:00,36.0,23.4,29.96,NE,36,8.0,20.0,60,0.00,RA,SKC,0.35,WeatherDisplay:10.37,2013-03-07 12:35:00,
2013-03-07 07:40:00,36.0,23.0,29.95,NE,35,10.0,20.0,59,0.00,,SKC,0.35,WeatherDisplay:10.37,2013-03-07 12:40:00,
2013-03-07 07:50:00,36.0,22.6,29.96,NE,37,10.0,20.0,58,0.00,CLR,SKC,0.35,WeatherDisplay:10.37,2013-03-07 12:50:00,
2013-03-07 07:55:00,36.0,22.6,29.96,NE,39,8.0,24.0,58,0.00,CLR,SKC,0.35,WeatherDisplay:10.37,2013-03-07 12:55:00,
2013-03-07 08:00:00,36.0,22.6,29.96,NE,44,8.0,23.0,58,0.00,RA,SKC,0.36,WeatherDisplay:10.37,2013-03-07 13:00:00,
2013-03-07 08:05:00,36.0,22.6,29.96,NE,35,9.0,20.0,58,0.00,RA,SKC,0.36,WeatherDisplay:10.37,2013-03-07 13:05:00,
2013-03-07 08:10:00,36.0,22.6,29.96,NE,38,7.0,23.0,58,0.00,,SKC,0.36,WeatherDisplay:10.37,2013-03-07 13:10:00,
2013-03-07 08:20:00,37.0,22.7,29.96,NE,42,8.0,17.0,56,0.00,CLR,SKC,0.36,WeatherDisplay:10.37,2013-03-07 13:20:00,
2013-03-07 08:30:00,37.0,22.7,29.96,NE,42,6.0,20.0,56,0.00,RA,SKC,0.37,WeatherDisplay:10.37,2013-03-07 13:30:00,
2013-03-07 08:40:00,37.0,22.7,29.96,NE,37,8.0,20.0,56,0.00,CLR,SKC,0.37,WeatherDisplay:10.37,2013-03-07 13:40:00,
2013-03-07 08:45:00,37.0,22.7,29.96,NNE,27,7.0,18.0,56,0.00,CLR,SKC,0.37,WeatherDisplay:10.37,2013-03-07 13:45:00,
2013-03-07 08:50:00,37.0,22.3,29.96,NNE,23,7.0,18.0,55,0.00,CLR,SKC,0.37,WeatherDisplay:10.37,2013-03-07 13:50:00,
2013-03-07 09:00:00,37.0,22.3,29.96,NE,36,9.0,21.0,55,0.00,CLR,SKC,0.37,WeatherDisplay:10.37,2013-03-07 14:00:00,
2013-03-07 09:05:00,37.0,21.9,29.96,NNE,32,10.0,21.0,54,0.00,CLR,SKC,0.37,WeatherDisplay:10.37,2013-03-07 14:05:00,
2013-03-07 09:10:00,37.0,21.9,29.96,NE,37,6.0,21.0,54,0.00,RA,SKC,0.38,WeatherDisplay:10.37,2013-03-07 14:10:00,
2013-03-07 09:20:00,37.0,21.4,29.95,NE,39,8.0,20.0,53,0.00,CLR,SKC,0.38,WeatherDisplay:10.37,2013-03-07 14:20:00,
2013-03-07 09:25:00,37.0,21.4,29.95,NE,40,6.0,21.0,53,0.00,CLR,SKC,0.38,WeatherDisplay:10.37,2013-03-07 14:25:00,
2013-03-07 09:35:00,37.0,21.4,29.94,NNE,33,7.0,18.0,53,0.00,RA,SKC,0.39,WeatherDisplay:10.37,2013-03-07 14:35:00,
2013-03-07 09:40:00,37.0,21.0,29.95,NE,38,5.0,20.0,52,0.00,,SKC,0.39,WeatherDisplay:10.37,2013-03-07 14:40:00,
2013-03-07 09:50:00,37.0,21.0,29.96,NE,42,6.0,20.0,52,0.00,CLR,SKC,0.39,WeatherDisplay:10.37,2013-03-07 14:50:00,
2013-03-07 10:00:00,37.0,21.0,29.95,NNE,31,10.0,20.0,52,0.00,RA,SKC,0.40,WeatherDisplay:10.37,2013-03-07 15:00:00,
2013-03-07 10:10:00,37.0,21.0,29.95,NE,34,8.0,26.0,52,0.00,CLR,SKC,0.40,WeatherDisplay:10.37,2013-03-07 15:10:00,
2013-03-07 10:15:00,37.0,21.0,29.95,NNE,32,10.0,20.0,52,0.00,RA,SKC,0.41,WeatherDisplay:10.37,2013-03-07 15:15:00,
2013-03-07 10:20:00,37.0,20.5,29.95,NNE,28,7.0,20.0,51,0.00,RA,SKC,0.41,WeatherDisplay:10.37,2013-03-07 15:20:00,
2013-03-07 10:25:00,36.0,20.1,29.95,NNE,24,9.0,20.0,52,0.00,RA,SKC,0.42,WeatherDisplay:10.37,2013-03-07 15:25:00,
2013-03-07 10:30:00,36.0,19.6,29.96,NNE,29,7.0,20.0,51,0.00,RA,SKC,0.42,WeatherDisplay:10.37,2013-03-07 15:30:00,
2013-03-07 10:35:00,36.0,20.1,29.96,NE,35,7.0,20.0,52,0.00,RA,SKC,0.43,WeatherDisplay:10.37,2013-03-07 15:35:00,
2013-03-07 10:40:00,36.0,19.6,29.96,NNE,31,9.0,25.0,51,0.00,RA,SKC,0.44,WeatherDisplay:10.37,2013-03-07 15:40:00,
2013-03-07 10:50:00,36.0,20.1,29.96,NE,36,6.0,24.0,52,0.00,RA,SKC,0.45,WeatherDisplay:10.37,2013-03-07 15:50:00,
2013-03-07 10:55:00,36.0,20.5,29.96,NE,34,9.0,17.0,53,0.00,RA,SKC,0.45,WeatherDisplay:10.37,2013-03-07 15:55:00,
2013-03-07 11:00:00,35.7,19.7,29.95,NE,35,12.0,31.0,52,0.00,RA,SKC,0.46,WeatherDisplay:10.37,2013-03-07 16:00:00,
2013-03-07 11:05:00,36.0,20.1,29.95,NNE,30,7.0,24.0,52,0.00,RA,SKC,0.47,WeatherDisplay:10.37,2013-03-07 16:05:00,
2013-03-07 11:15:00,36.0,20.5,29.94,NNE,24,8.0,20.0,53,0.00,RA,SKC,0.48,WeatherDisplay:10.37,2013-03-07 16:15:00,
2013-03-07 11:20:00,36.0,20.5,29.94,NNE,30,6.0,21.0,53,0.00,RA,SKC,0.49,WeatherDisplay:10.37,2013-03-07 16:20:00,
2013-03-07 11:25:00,36.0,20.9,29.94,NNE,32,9.0,29.0,54,0.00,RA,SKC,0.49,WeatherDisplay:10.37,2013-03-07 16:25:00,
2013-03-07 11:35:00,36.0,20.5,29.94,NE,34,8.0,31.0,53,0.00,RA,SKC,0.50,WeatherDisplay:10.37,2013-03-07 16:35:00,
2013-03-07 11:40:00,36.0,20.5,29.95,NE,34,8.0,20.0,53,0.00,RA,SKC,0.50,WeatherDisplay:10.37,2013-03-07 16:40:00,
2013-03-07 11:45:00,36.0,20.5,29.95,NNE,31,8.0,27.0,53,0.00,RA,SKC,0.51,WeatherDisplay:10.37,2013-03-07 16:45:00,
2013-03-07 11:50:00,36.0,20.5,29.95,NNE,30,6.0,24.0,53,0.01,RA,SKC,0.52,WeatherDisplay:10.37,2013-03-07 16:50:00,
2013-03-07 11:55:00,36.4,20.8,29.95,NNE,32,10.0,20.0,53,0.00,RA,SKC,0.52,WeatherDisplay:10.37,2013-03-07 16:55:00,
2013-03-07 12:05:00,36.0,20.5,29.95,NNE,32,6.0,20.0,53,0.00,RA,SKC,0.53,WeatherDisplay:10.37,2013-03-07 17:05:00,
2013-03-07 12:10:00,36.0,20.1,29.95,NNE,32,8.0,23.0,52,0.00,RA,SKC,0.53,WeatherDisplay:10.37,2013-03-07 17:10:00,
2013-03-07 12:20:00,36.0,20.5,29.95,NNE,28,8.0,23.0,53,0.01,RA,SKC,0.55,WeatherDisplay:10.37,2013-03-07 17:20:00,
2013-03-07 12:30:00,36.0,20.5,29.94,NNE,31,8.0,21.0,53,0.01,RA,SKC,0.56,WeatherDisplay:10.37,2013-03-07 17:30:00,
2013-03-07 12:40:00,36.0,20.5,29.94,NNE,24,7.0,20.0,53,0.00,RA,SKC,0.57,WeatherDisplay:10.37,2013-03-07 17:40:00,
2013-03-07 12:45:00,36.0,20.9,29.94,NNE,24,7.0,18.0,54,0.00,RA,SKC,0.57,WeatherDisplay:10.37,2013-03-07 17:45:00,
2013-03-07 12:50:00,36.0,20.5,29.94,NNE,23,7.0,20.0,53,0.00,RA,SKC,0.58,WeatherDisplay:10.37,2013-03-07 17:50:00,
2013-03-07 13:00:00,36.0,20.5,29.95,NNE,30,10.0,29.0,53,0.00,RA,SKC,0.59,WeatherDisplay:10.37,2013-03-07 18:00:00,
2013-03-07 13:10:00,36.0,20.9,29.94,NNE,30,8.0,18.0,54,0.00,RA,SKC,0.60,WeatherDisplay:10.37,2013-03-07 18:10:00,
2013-03-07 13:15:00,36.0,20.9,29.94,NNE,22,7.0,27.0,54,0.00,RA,SKC,0.60,WeatherDisplay:10.37,2013-03-07 18:15:00,
2013-03-07 13:25:00,36.0,20.9,29.93,NNE,26,9.0,22.0,54,0.00,RA,SKC,0.62,WeatherDisplay:10.37,2013-03-07 18:25:00,
2013-03-07 13:30:00,36.0,20.9,29.94,NNE,24,7.0,20.0,54,0.00,RA,SKC,0.62,WeatherDisplay:10.37,2013-03-07 18:30:00,
2013-03-07 13:35:00,36.0,20.9,29.94,NNE,27,6.0,32.0,54,0.01,RA,SKC,0.63,WeatherDisplay:10.37,2013-03-07 18:35:00,
2013-03-07 13:40:00,36.0,20.9,29.95,NNE,25,10.0,22.0,54,0.00,RA,SKC,0.63,WeatherDisplay:10.37,2013-03-07 18:40:00,
2013-03-07 13:45:00,36.0,20.9,29.95,NNE,21,8.0,20.0,54,0.00,,SKC,0.63,WeatherDisplay:10.37,2013-03-07 18:45:00,
2013-03-07 13:50:00,35.7,20.7,29.94,NNE,23,8.0,23.0,54,0.00,RA,SKC,0.64,WeatherDisplay:10.37,2013-03-07 18:50:00,
2013-03-07 14:00:00,35.0,20.0,29.93,NNE,25,7.0,25.0,54,0.00,RA,SKC,0.65,WeatherDisplay:10.37,2013-03-07 19:00:00,
2013-03-07 14:05:00,36.0,20.9,29.93,NNE,20,10.0,27.0,54,0.00,RA,SKC,0.65,WeatherDisplay:10.37,2013-03-07 19:05:00,
2013-03-07 14:10:00,36.0,20.9,29.93,NNE,22,8.0,22.0,54,0.00,RA,SKC,0.66,WeatherDisplay:10.37,2013-03-07 19:10:00,
2013-03-07 14:15:00,35.7,20.7,29.93,NNE,21,9.0,21.0,54,0.00,RA,SKC,0.66,WeatherDisplay:10.37,2013-03-07 19:15:00,
2013-03-07 14:20:00,36.0,20.9,29.93,NNE,17,8.0,29.0,54,0.00,RA,SKC,0.67,WeatherDisplay:10.37,2013-03-07 19:20:00,
2013-03-07 14:30:00,35.0,20.0,29.93,NNE,29,10.0,25.0,54,0.00,RA,SKC,0.68,WeatherDisplay:10.37,2013-03-07 19:30:00,
2013-03-07 14:40:00,35.0,20.0,29.95,NNE,19,6.0,21.0,54,0.01,RA,SKC,0.70,WeatherDisplay:10.37,2013-03-07 19:40:00,
2013-03-07 14:50:00,35.0,20.0,29.94,NNE,17,6.0,26.0,54,0.00,RA,SKC,0.71,WeatherDisplay:10.37,2013-03-07 19:50:00,
2013-03-07 15:00:00,35.0,20.0,29.94,NNE,19,5.0,25.0,54,0.00,RA,SKC,0.72,WeatherDisplay:10.37,2013-03-07 20:00:00,
2013-03-07 15:05:00,35.0,20.0,29.94,NNE,19,7.0,28.0,54,0.00,RA,SKC,0.73,WeatherDisplay:10.37,2013-03-07 20:05:00,
2013-03-07 15:10:00,35.0,20.0,29.95,NNE,28,9.0,28.0,54,0.00,RA,SKC,0.73,WeatherDisplay:10.37,2013-03-07 20:10:00,
2013-03-07 15:15:00,35.0,20.0,29.95,NNE,27,7.0,22.0,54,0.00,RA,SKC,0.74,WeatherDisplay:10.37,2013-03-07 20:15:00,
2013-03-07 15:20:00,35.0,20.0,29.95,NNE,20,7.0,21.0,54,0.00,RA,SKC,0.74,WeatherDisplay:10.37,2013-03-07 20:20:00,
2013-03-07 15:30:00,35.0,20.0,29.94,North,8,7.0,22.0,54,0.01,RA,SKC,0.76,WeatherDisplay:10.37,2013-03-07 20:30:00,
2013-03-07 15:35:00,35.0,20.0,29.94,NNE,17,6.0,21.0,54,0.00,RA,SKC,0.76,WeatherDisplay:10.37,2013-03-07 20:35:00,
2013-03-07 15:40:00,35.0,20.0,29.94,NNE,14,6.0,27.0,54,0.00,RA,SKC,0.77,WeatherDisplay:10.37,2013-03-07 20:40:00,
2013-03-07 15:50:00,35.0,20.0,29.94,NNE,24,7.0,17.0,54,0.00,RA,SKC,0.78,WeatherDisplay:10.37,2013-03-07 20:50:00,
2013-03-07 16:00:00,35.0,20.0,29.93,NNE,20,6.0,27.0,54,0.00,RA,SKC,0.80,WeatherDisplay:10.37,2013-03-07 21:00:00,
2013-03-07 16:05:00,35.0,20.4,29.93,NNE,15,12.0,23.0,55,0.00,RA,SKC,0.81,WeatherDisplay:10.37,2013-03-07 21:05:00,
2013-03-07 16:10:00,35.0,20.4,29.94,NNE,21,9.0,22.0,55,0.01,RA,SKC,0.83,WeatherDisplay:10.37,2013-03-07 21:10:00,
2013-03-07 16:20:00,35.0,20.9,29.94,NNE,27,8.0,25.0,56,0.01,RA,SKC,0.85,WeatherDisplay:10.37,2013-03-07 21:20:00,
2013-03-07 16:30:00,35.0,20.9,29.94,NNE,22,14.0,30.0,56,0.00,RA,SKC,0.86,WeatherDisplay:10.37,2013-03-07 21:30:00,
2013-03-07 16:40:00,35.0,20.9,29.94,NNE,22,9.0,26.0,56,0.00,RA,SKC,0.88,WeatherDisplay:10.37,2013-03-07 21:40:00,
2013-03-07 16:50:00,36.0,21.8,29.95,NNE,17,9.0,20.0,56,0.00,RA,SKC,0.89,WeatherDisplay:10.37,2013-03-07 21:50:00,
2013-03-07 16:55:00,35.0,20.9,29.95,NNE,21,7.0,22.0,56,0.01,RA,SKC,0.90,WeatherDisplay:10.37,2013-03-07 21:55:00,
2013-03-07 17:05:00,35.3,21.2,29.95,NNE,15,9.0,24.0,56,0.01,RA,SKC,0.91,WeatherDisplay:10.37,2013-03-07 22:05:00,
2013-03-07 17:10:00,36.0,21.4,29.94,NNE,21,8.0,21.0,55,0.00,RA,SKC,0.91,WeatherDisplay:10.37,2013-03-07 22:10:00,
2013-03-07 17:15:00,36.0,21.4,29.94,NNE,21,8.0,21.0,55,0.00,RA,SKC,0.92,WeatherDisplay:10.37,2013-03-07 22:15:00,
2013-03-07 17:20:00,36.0,21.4,29.95,NNE,21,10.0,26.0,55,0.00,RA,SKC,0.92,WeatherDisplay:10.37,2013-03-07 22:20:00,
2013-03-07 17:30:00,35.0,20.0,29.94,NNE,17,12.0,21.0,54,0.00,RA,SKC,0.93,WeatherDisplay:10.37,2013-03-07 22:30:00,
2013-03-07 17:40:00,35.0,20.0,29.95,NNE,15,7.0,14.0,54,0.00,RA,SKC,0.94,WeatherDisplay:10.37,2013-03-07 22:40:00,
2013-03-07 17:50:00,35.0,20.0,29.95,NNE,21,5.0,20.0,54,0.01,RA,SKC,0.96,WeatherDisplay:10.37,2013-03-07 22:50:00,
2013-03-07 18:00:00,35.0,20.0,29.95,NNE,16,8.0,21.0,54,0.00,RA,SKC,0.97,WeatherDisplay:10.37,2013-03-07 23:00:00,
2013-03-07 18:05:00,35.0,20.0,29.95,NNE,22,9.0,20.0,54,0.00,RA,SKC,0.98,WeatherDisplay:10.37,2013-03-07 23:05:00,
2013-03-07 18:10:00,35.0,20.0,29.95,NNE,23,6.0,24.0,54,0.00,RA,SKC,0.99,WeatherDisplay:10.37,2013-03-07 23:10:00,
2013-03-07 18:20:00,35.0,20.0,29.95,NNE,15,10.0,28.0,54,0.00,RA,SKC,1.01,WeatherDisplay:10.37,2013-03-07 23:20:00,
2013-03-07 18:25:00,35.0,20.0,29.95,NNE,17,3.0,23.0,54,0.00,RA,SKC,1.02,WeatherDisplay:10.37,2013-03-07 23:25:00,
2013-03-07 18:30:00,35.0,20.0,29.96,NNE,17,7.0,21.0,54,0.00,RA,SKC,1.03,WeatherDisplay:10.37,2013-03-07 23:30:00,
2013-03-07 18:35:00,35.0,20.4,29.96,NNE,17,6.0,20.0,55,0.00,RA,SKC,1.04,WeatherDisplay:10.37,2013-03-07 23:35:00,
2013-03-07 18:40:00,35.0,20.0,29.96,NNE,21,13.0,27.0,54,0.00,RA,SKC,1.04,WeatherDisplay:10.37,2013-03-07 23:40:00,
2013-03-07 18:50:00,35.0,20.0,29.95,NNE,12,9.0,20.0,54,0.00,RA,SKC,1.05,WeatherDisplay:10.37,2013-03-07 23:50:00,
2013-03-07 19:00:00,35.0,20.4,29.95,NNE,13,7.0,23.0,55,0.00,RA,SKC,1.06,WeatherDisplay:10.37,2013-03-08 00:00:00,
2013-03-07 19:05:00,35.0,20.4,29.95,NNE,12,9.0,20.0,55,0.00,RA,SKC,1.07,WeatherDisplay:10.37,2013-03-08 00:05:00,
2013-03-07 19:10:00,35.0,20.0,29.96,NNE,14,12.0,25.0,54,0.01,RA,SKC,1.08,WeatherDisplay:10.37,2013-03-08 00:10:00,
2013-03-07 19:20:00,35.0,20.4,29.96,NNE,17,8.0,22.0,55,0.00,,SKC,1.08,WeatherDisplay:10.37,2013-03-08 00:20:00,
2013-03-07 19:30:00,35.0,20.9,29.96,NNE,24,7.0,20.0,56,0.00,CLR,SKC,1.08,WeatherDisplay:10.37,2013-03-08 00:30:00,
2013-03-07 19:40:00,36.0,21.4,29.97,NNE,30,7.0,21.0,55,0.00,RA,SKC,1.09,WeatherDisplay:10.37,2013-03-08 00:40:00,
2013-03-07 19:50:00,36.0,21.4,29.96,NNE,23,8.0,20.0,55,0.00,CLR,SKC,1.09,WeatherDisplay:10.37,2013-03-08 00:50:00,
2013-03-07 19:55:00,35.0,20.4,29.96,NNE,21,9.0,21.0,55,0.00,CLR,SKC,1.09,WeatherDisplay:10.37,2013-03-08 00:55:00,
2013-03-07 20:05:00,36.0,21.4,29.96,NNE,18,8.0,22.0,55,0.00,RA,SKC,1.10,WeatherDisplay:10.37,2013-03-08 01:05:00,
2013-03-07 20:10:00,36.0,21.4,29.95,NNE,19,7.0,18.0,55,0.00,RA,SKC,1.10,WeatherDisplay:10.37,2013-03-08 01:10:00,
2013-03-07 20:15:00,36.0,21.4,29.95,NNE,20,9.0,25.0,55,0.00,CLR,SKC,1.10,WeatherDisplay:10.37,2013-03-08 01:15:00,
2013-03-07 20:20:00,36.0,21.4,29.96,NNE,23,10.0,24.0,55,0.00,CLR,SKC,1.10,WeatherDisplay:10.37,2013-03-08 01:20:00,
2013-03-07 20:30:00,36.0,21.8,29.96,NNE,22,9.0,23.0,56,0.00,RA,SKC,1.11,WeatherDisplay:10.37,2013-03-08 01:30:00,
2013-03-07 20:35:00,36.0,21.8,29.96,NNE,28,9.0,20.0,56,0.00,,SKC,1.11,WeatherDisplay:10.37,2013-03-08 01:35:00,
2013-03-07 20:40:00,36.0,21.4,29.95,NNE,26,7.0,25.0,55,0.00,CLR,SKC,1.11,WeatherDisplay:10.37,2013-03-08 01:40:00,
2013-03-07 20:45:00,36.0,21.4,29.95,NNE,22,8.0,25.0,55,0.01,RA,SKC,1.12,WeatherDisplay:10.37,2013-03-08 01:45:00,
2013-03-07 20:50:00,36.0,21.4,29.95,NNE,25,9.0,18.0,55,0.00,RA,SKC,1.12,WeatherDisplay:10.37,2013-03-08 01:50:00,
2013-03-07 20:55:00,36.0,21.4,29.95,NNE,17,7.0,23.0,55,0.00,,SKC,1.12,WeatherDisplay:10.37,2013-03-08 01:55:00,
2013-03-07 21:00:00,36.0,21.4,29.96,NNE,13,7.0,18.0,55,0.00,CLR,SKC,1.12,WeatherDisplay:10.37,2013-03-08 02:00:00,
2013-03-07 21:05:00,36.0,21.8,29.96,NNE,17,7.0,22.0,56,0.00,RA,SKC,1.13,WeatherDisplay:10.37,2013-03-08 02:05:00,
2013-03-07 21:10:00,36.0,21.4,29.96,NNE,18,9.0,21.0,55,0.00,RA,SKC,1.13,WeatherDisplay:10.37,2013-03-08 02:10:00,
2013-03-07 21:20:00,36.0,20.9,29.95,NNE,18,9.0,23.0,54,0.00,RA,SKC,1.14,WeatherDisplay:10.37,2013-03-08 02:20:00,
2013-03-07 21:30:00,36.0,20.9,29.95,NNE,29,7.0,20.0,54,0.00,CLR,SKC,1.14,WeatherDisplay:10.37,2013-03-08 02:30:00,
2013-03-07 21:40:00,36.0,20.9,29.94,NNE,23,7.0,14.0,54,0.00,RA,SKC,1.15,WeatherDisplay:10.37,2013-03-08 02:40:00,
2013-03-07 21:50:00,36.0,20.9,29.94,NNE,28,6.0,25.0,54,0.00,CLR,SKC,1.15,WeatherDisplay:10.37,2013-03-08 02:50:00,
2013-03-07 21:55:00,36.0,20.9,29.94,NNE,20,7.0,18.0,54,0.00,RA,SKC,1.16,WeatherDisplay:10.37,2013-03-08 02:55:00,
2013-03-07 22:00:00,36.0,20.9,29.95,NNE,26,10.0,20.0,54,0.00,RA,SKC,1.16,WeatherDisplay:10.37,2013-03-08 03:00:00,
2013-03-07 22:05:00,36.0,20.9,29.95,NNE,24,7.0,20.0,54,0.00,CLR,SKC,1.16,WeatherDisplay:10.37,2013-03-08 03:05:00,
2013-03-07 22:10:00,36.0,20.9,29.95,NNE,24,8.0,25.0,54,0.00,CLR,SKC,1.16,WeatherDisplay:10.37,2013-03-08 03:10:00,
2013-03-07 22:20:00,35.0,19.6,29.94,NNE,21,2.0,21.0,53,0.00,RA,SKC,1.17,WeatherDisplay:10.37,2013-03-08 03:20:00,
2013-03-07 22:30:00,35.0,20.0,29.94,NNE,21,8.0,20.0,54,0.00,CLR,SKC,1.17,WeatherDisplay:10.37,2013-03-08 03:30:00,
2013-03-07 22:35:00,35.0,20.0,29.94,NNE,26,6.0,20.0,54,0.00,CLR,SKC,1.17,WeatherDisplay:10.37,2013-03-08 03:35:00,
2013-03-07 22:45:00,35.0,20.0,29.95,NNE,22,7.0,21.0,54,0.00,RA,SKC,1.18,WeatherDisplay:10.37,2013-03-08 03:45:00,
2013-03-07 22:50:00,35.0,19.6,29.94,NNE,23,10.0,26.0,53,0.00,RA,SKC,1.19,WeatherDisplay:10.37,2013-03-08 03:50:00,
2013-03-07 23:00:00,35.0,19.6,29.93,NNE,21,7.0,28.0,53,0.00,RA,SKC,1.20,WeatherDisplay:10.37,2013-03-08 04:00:00,
2013-03-07 23:05:00,35.0,19.6,29.93,NNE,23,8.0,20.0,53,0.00,RA,SKC,1.20,WeatherDisplay:10.37,2013-03-08 04:05:00,
2013-03-07 23:10:00,35.0,19.6,29.94,NNE,28,5.0,20.0,53,0.00,RA,SKC,1.21,WeatherDisplay:10.37,2013-03-08 04:10:00,
2013-03-07 23:15:00,35.0,19.6,29.94,NNE,25,6.0,27.0,53,0.01,RA,SKC,1.22,WeatherDisplay:10.37,2013-03-08 04:15:00,
2013-03-07 23:20:00,35.0,19.6,29.94,North,8,5.0,20.0,53,0.00,RA,SKC,1.22,WeatherDisplay:10.37,2013-03-08 04:20:00,
2013-03-07 23:30:00,34.0,18.6,29.94,NNE,14,7.0,20.0,53,0.00,RA,SKC,1.24,WeatherDisplay:10.37,2013-03-08 04:30:00,
2013-03-07 23:40:00,34.0,19.1,29.93,NNE,20,7.0,20.0,54,0.00,RA,SKC,1.25,WeatherDisplay:10.37,2013-03-08 04:40:00,
2013-03-07 23:50:00,34.0,19.1,29.92,NNE,15,7.0,16.0,54,0.00,RA,SKC,1.26,WeatherDisplay:10.37,2013-03-08 04:50:00,
2013-03-07 23:55:00,34.0,19.1,29.92,NNE,19,6.0,16.0,54,0.00,RA,SKC,1.26,WeatherDisplay:10.37,2013-03-08 04:55:00,